Russellville, AR

10:37 PM CDT on June 28, 2017 (GMT -0500)
Russellville Regional

Weather History for KRUE - January, 2013

Change the Weather History Date:

Sunday, January 27, 2013

  Actual Average (KHOT) Record (KHOT)
Temperature  
Mean Temperature 53 °F -  
Max Temperature 60 °F 52 °F 74 °F (1970)
Min Temperature 46 °F 29 °F 7 °F (1963)
Degree Days  
Heating Degree Days 12    
Growing Degree Days 3 (Base 50)    
Moisture  
Dew Point 46 °F    
Average Humidity 81    
Maximum Humidity 93    
Minimum Humidity 61    
Precipitation  
Precipitation 0.00 in - - ()
Sea Level Pressure  
Sea Level Pressure 30.12 in    
Wind  
Wind Speed 3 mph (ESE)    
Max Wind Speed 6 mph    
Max Gust Speed -    
Visibility 8 miles    
Events Rain    
Averages and records for this station are not official NWS values.
T = Trace of Precipitation, MM = Missing Value Source: NWS Daily Summary

Daily Weather History Graph

Daily Weather History Graph

Search for Another Location

Airport or City:

Trip Planner

Search our weather history database for the weather conditions in past years. The results will help you decide how hot, cold, wet, or windy it might be!

Date:

Astronomy

Jan. 27, 2013 Rise Set
Actual Time 7:14 AM CST 5:35 PM CST
Civil Twilight 6:47 AM CST 6:02 PM CST
Nautical Twilight 6:17 AM CST 6:33 PM CST
Astronomical Twilight 5:47 AM CST 7:03 PM CST
Moon 6:26 PM CST (1/27) 7:11 AM CST (1/27)
Length of Visible Light 11h 14m
Length of Day
10h 20m
Full, 100% of the Moon is Illuminated
Jan 27
Full
Feb 3
Last Quarter
Feb 10
New
Feb 17
First Quarter
Feb 25
Full

Hourly Weather History & Observations

Time (CST) Temp. Windchill Dew Point Humidity Pressure Visibility Wind Dir Wind Speed Gust Speed Precip Events Conditions
12:53 AM 46.9 °F - 34.0 °F 61% 30.20 in 10.0 mi Calm Calm - N/A   Overcast
1:53 AM 46.9 °F - 34.0 °F 61% 30.19 in 10.0 mi Variable 3.5 mph - N/A   Overcast
2:53 AM 46.9 °F - 35.1 °F 63% 30.19 in 10.0 mi ESE 3.5 mph - N/A   Overcast
3:53 AM 46.9 °F - 36.0 °F 66% 30.17 in 10.0 mi Variable 3.5 mph - N/A   Overcast
4:53 AM 46.9 °F - 37.0 °F 68% 30.17 in 10.0 mi Variable 4.6 mph - N/A   Overcast
5:10 AM 46.4 °F 45.2 °F 37.4 °F 71% 30.17 in 10.0 mi Variable 3.5 mph - N/A   Overcast
5:53 AM 46.0 °F 44.8 °F 37.9 °F 73% 30.16 in 10.0 mi Variable 3.5 mph - N/A   Overcast
6:53 AM 46.0 °F 44.8 °F 41.0 °F 83% 30.17 in 8.0 mi Variable 3.5 mph - N/A   Overcast
7:53 AM 46.0 °F 43.9 °F 41.0 °F 83% 30.17 in 6.0 mi Variable 4.6 mph - N/A   Haze
8:10 AM 46.4 °F 44.3 °F 41.0 °F 81% 30.18 in 7.0 mi Variable 4.6 mph - N/A   Overcast
8:50 AM 46.4 °F - 42.8 °F 87% 30.18 in 4.0 mi Calm Calm - N/A   Overcast
8:53 AM 46.0 °F 44.8 °F 43.0 °F 89% 30.17 in 4.0 mi Variable 3.5 mph - N/A   Overcast
9:30 AM 46.4 °F 45.2 °F 44.6 °F 93% 30.18 in 2.5 mi East 3.5 mph - 0.00 in Rain Light Rain
9:50 AM 46.4 °F 44.3 °F 44.6 °F 93% 30.18 in 1.5 mi Variable 4.6 mph - 0.00 in   Overcast
9:53 AM 46.0 °F 44.8 °F 44.1 °F 93% 30.17 in 1.5 mi Variable 3.5 mph - 0.00 in   Overcast
10:18 AM 46.4 °F 43.5 °F 44.6 °F 93% 30.18 in 2.0 mi ESE 5.8 mph - 0.00 in   Overcast
10:53 AM 46.9 °F - 45.0 °F 93% 30.16 in 2.5 mi Variable 4.6 mph - 0.00 in   Overcast
11:19 AM 48.2 °F - 46.4 °F 93% 30.16 in 3.0 mi Calm Calm - N/A   Overcast
11:42 AM 48.2 °F - 46.4 °F 93% 30.16 in 4.0 mi Calm Calm - N/A   Overcast
11:53 AM 50.0 °F - 46.0 °F 86% 30.14 in 5.0 mi SE 4.6 mph - N/A   Overcast
12:07 PM 51.8 °F - 46.4 °F 82% 30.13 in 6.0 mi Variable 4.6 mph - N/A   Overcast
12:25 PM 51.8 °F - 46.4 °F 82% 30.13 in 6.0 mi Variable 4.6 mph - N/A   Overcast
12:53 PM 52.0 °F - 48.0 °F 86% 30.10 in 7.0 mi ESE 4.6 mph - N/A   Overcast
1:53 PM 55.0 °F - 48.9 °F 80% 30.06 in 10.0 mi Variable 4.6 mph - N/A   Overcast
2:11 PM 55.4 °F - 48.2 °F 77% 30.07 in 10.0 mi Calm Calm - N/A   Overcast
2:53 PM 57.0 °F - 50.0 °F 77% 30.05 in 10.0 mi Calm Calm - N/A   Overcast
3:53 PM 57.9 °F - 50.0 °F 75% 30.03 in 10.0 mi East 5.8 mph - N/A   Overcast
4:53 PM 59.0 °F - 52.0 °F 78% 30.03 in 9.0 mi Calm Calm - N/A   Overcast
5:53 PM 59.0 °F - 52.0 °F 78% 30.02 in 9.0 mi Calm Calm - N/A   Overcast
6:53 PM 57.9 °F - 52.0 °F 81% 30.04 in 10.0 mi Calm Calm - N/A   Overcast
7:53 PM 57.0 °F - 52.0 °F 83% 30.04 in 10.0 mi Variable 3.5 mph - N/A   Overcast
8:15 PM 55.4 °F - 51.8 °F 88% 30.04 in 10.0 mi Calm Calm - N/A   Mostly Cloudy
8:53 PM 55.9 °F - 52.0 °F 87% 30.03 in 10.0 mi Calm Calm - N/A   Overcast
9:53 PM 59.0 °F - 54.0 °F 83% 30.01 in 10.0 mi Variable 3.5 mph - N/A   Overcast
10:37 PM 60.8 °F - 55.4 °F 82% 30.02 in 10.0 mi ENE 5.8 mph - N/A   Overcast
10:53 PM 60.1 °F - 55.0 °F 83% 30.01 in 10.0 mi East 4.6 mph - N/A   Overcast
11:53 PM 59.0 °F - 55.0 °F 87% 30.02 in 10.0 mi Calm Calm - N/A   Overcast